When you browse on this site, cookies collect data to enhance your experience and personalize the content and advertising you see.
Visit our Privacy Policy to learn more. By continuing to use the site, you agree to this use of cookies and data.
  • In United Kingdom
  • List of Countries
  • For 7 days
  • Water Temperature
  • Satellite Maps
  • Weather Map
  • Weather Widgets
  • user-avatar
    Login

    Hourly Weather Tadzhura

    Today, 20 May, Monday

    Time Temperature Precipitation Wind Pressure Humidity
    00:00 +35°C° 0 mm 3 mps 753 mmHg 67%
    01:00 +34°C° 1 mm 2 mps 753 mmHg 67%
    02:00 +34°C° 1 mm 2 mps 753 mmHg 67%
    03:00 +33°C° 0 mm 1 mps 753 mmHg 64%
    04:00 +33°C° 1.4 mm 1 mps 754 mmHg 64%
    05:00 +34°C° 1.4 mm 2 mps 754 mmHg 63%
    06:00 +34°C° 1.4 mm 3 mps 755 mmHg 62%
    07:00 +34°C° 0.1 mm 3 mps 755 mmHg 60%
    08:00 +34°C° 0.1 mm 2 mps 756 mmHg 59%
    09:00 +35°C° 0.1 mm 2 mps 756 mmHg 57%
    10:00 +36°C° 0.2 mm 2 mps 756 mmHg 54%
    11:00 +36°C° 0.2 mm 2 mps 755 mmHg 51%
    12:00 +37°C° 0.2 mm 2 mps 755 mmHg 48%
    13:00 +38°C° 0.1 mm 2 mps 755 mmHg 45%
    14:00 +38°C° 0.1 mm 2 mps 754 mmHg 43%
    15:00 +39°C° 0.1 mm 3 mps 754 mmHg 41%
    16:00 +39°C° 0.3 mm 3 mps 753 mmHg 43%
    17:00 +38°C° 0.3 mm 2 mps 753 mmHg 44%
    18:00 +38°C° 0.3 mm 2 mps 753 mmHg 46%
    19:00 +37°C° 0 mm 2 mps 753 mmHg 50%
    20:00 +36°C° 0 mm 2 mps 754 mmHg 54%
    21:00 +36°C° 0 mm 2 mps 754 mmHg 58%
    22:00 +35°C° 0.7 mm 2 mps 754 mmHg 62%
    23:00 +35°C° 0.7 mm 2 mps 754 mmHg 66%

    Tomorrow, 21 May, Tuesday

    Time Temperature Precipitation Wind Pressure Humidity
    00:00 +34°C° 0.7 mm 3 mps 754 mmHg 70%
    01:00 +34°C° 1.3 mm 2 mps 754 mmHg 73%
    02:00 +34°C° 1.3 mm 2 mps 753 mmHg 75%
    03:00 +32°C° 1.3 mm 1 mps 753 mmHg 77%
    04:00 +32°C° 0.5 mm 1 mps 753 mmHg 77%
    05:00 +32°C° 0.5 mm 1 mps 754 mmHg 77%
    06:00 +32°C° 0.5 mm 2 mps 754 mmHg 76%
    07:00 +34°C° 0.5 mm 2 mps 755 mmHg 71%
    08:00 +35°C° 0.5 mm 2 mps 755 mmHg 66%
    09:00 +35°C° 0.5 mm 3 mps 756 mmHg 61%
    10:00 +36°C° 0 mm 3 mps 755 mmHg 57%
    11:00 +37°C° 0 mm 3 mps 755 mmHg 52%
    12:00 +38°C° 0 mm 4 mps 755 mmHg 48%
    13:00 +38°C° 0 mm 4 mps 754 mmHg 48%
    14:00 +38°C° 0 mm 4 mps 754 mmHg 48%
    15:00 +38°C° 0 mm 4 mps 753 mmHg 49%
    16:00 +38°C° 0.2 mm 4 mps 753 mmHg 52%
    17:00 +37°C° 0.2 mm 4 mps 753 mmHg 56%
    18:00 +36°C° 0.2 mm 4 mps 752 mmHg 59%
    19:00 +36°C° 0.1 mm 3 mps 753 mmHg 61%
    20:00 +35°C° 0.1 mm 3 mps 754 mmHg 63%
    21:00 +35°C° 0.1 mm 3 mps 754 mmHg 65%
    22:00 +35°C° 0 mm 3 mps 754 mmHg 66%
    23:00 +34°C° 0 mm 3 mps 754 mmHg 68%

    Day after tomorrow, 22 May, Wednesday

    Time Temperature Precipitation Wind Pressure Humidity
    00:00 +34°C° 0 mm 2 mps 754 mmHg 70%
    01:00 +34°C° 0.4 mm 2 mps 754 mmHg 71%
    02:00 +34°C° 0.4 mm 3 mps 754 mmHg 72%
    03:00 +33°C° 0.4 mm 3 mps 754 mmHg 73%
    04:00 +32°C° 0.3 mm 2 mps 754 mmHg 73%
    05:00 +32°C° 0.3 mm 2 mps 754 mmHg 73%
    06:00 +32°C° 0.3 mm 2 mps 754 mmHg 72%
    07:00 +34°C° 0 mm 3 mps 755 mmHg 69%
    08:00 +34°C° 0 mm 3 mps 755 mmHg 66%
    09:00 +35°C° 0 mm 3 mps 756 mmHg 63%
    10:00 +35°C° 0.3 mm 4 mps 756 mmHg 61%
    11:00 +36°C° 0.3 mm 4 mps 756 mmHg 59%
    12:00 +37°C° 0.3 mm 4 mps 755 mmHg 56%
    13:00 +37°C° 0.1 mm 4 mps 755 mmHg 56%
    14:00 +37°C° 0.1 mm 4 mps 754 mmHg 56%
    15:00 +37°C° 0.1 mm 4 mps 753 mmHg 56%
    16:00 +36°C° 0 mm 4 mps 753 mmHg 58%
    17:00 +36°C° 0 mm 4 mps 753 mmHg 60%
    18:00 +35°C° 0 mm 3 mps 753 mmHg 62%
    19:00 +35°C° 0.1 mm 3 mps 754 mmHg 63%
    20:00 +35°C° 0.1 mm 3 mps 754 mmHg 65%
    21:00 +34°C° 0.1 mm 2 mps 755 mmHg 66%
    22:00 +34°C° 0.3 mm 2 mps 755 mmHg 67%
    23:00 +34°C° 0.3 mm 2 mps 755 mmHg 68%

    23 May, Thursday

    Time Temperature Precipitation Wind Pressure Humidity
    00:00 +34°C° 0.3 mm 2 mps 755 mmHg 70%
    01:00 +34°C° 0.4 mm 2 mps 754 mmHg 69%
    02:00 +32°C° 0.4 mm 2 mps 754 mmHg 69%
    03:00 +32°C° 0.4 mm 2 mps 754 mmHg 69%
    04:00 +32°C° 0.4 mm 2 mps 754 mmHg 70%
    05:00 +32°C° 0.4 mm 2 mps 755 mmHg 70%
    06:00 +32°C° 0.4 mm 2 mps 755 mmHg 70%
    07:00 +32°C° 0.6 mm 2 mps 756 mmHg 67%
    08:00 +34°C° 0.6 mm 2 mps 756 mmHg 64%
    09:00 +34°C° 0.6 mm 2 mps 757 mmHg 61%
    10:00 +35°C° 0.6 mm 2 mps 757 mmHg 60%
    11:00 +35°C° 0.6 mm 2 mps 756 mmHg 58%
    12:00 +35°C° 0.6 mm 2 mps 756 mmHg 57%
    13:00 +36°C° 0.1 mm 2 mps 755 mmHg 55%
    14:00 +36°C° 0.1 mm 2 mps 755 mmHg 53%
    15:00 +35°C° 0.1 mm 1 mps 754 mmHg 52%
    16:00 +36°C° 0 mm 2 mps 754 mmHg 53%
    17:00 +36°C° 0 mm 2 mps 754 mmHg 54%
    18:00 +35°C° 0 mm 2 mps 754 mmHg 54%
    19:00 +34°C° 0 mm 1 mps 754 mmHg 56%
    20:00 +34°C° 0 mm 1 mps 755 mmHg 57%
    21:00 +34°C° 0 mm 1 mps 755 mmHg 59%
    22:00 +33°C° 0 mm 1 mps 755 mmHg 60%
    23:00 +33°C° 0 mm 1 mps 755 mmHg 60%

    24 May, Friday

    Time Temperature Precipitation Wind Pressure Humidity
    00:00 +33°C° 0 mm 1 mps 755 mmHg 61%
    01:00 +33°C° 0 mm 1 mps 755 mmHg 63%
    02:00 +32°C° 0 mm 1 mps 754 mmHg 64%
    03:00 +32°C° 0 mm 1 mps 754 mmHg 65%
    04:00 +32°C° 0 mm 1 mps 754 mmHg 67%
    05:00 +32°C° 0 mm 1 mps 755 mmHg 69%
    06:00 +31°C° 0 mm 1 mps 755 mmHg 71%
    07:00 +32°C° 0 mm 2 mps 756 mmHg 67%
    08:00 +34°C° 0 mm 2 mps 756 mmHg 62%
    09:00 +35°C° 0 mm 3 mps 757 mmHg 58%
    10:00 +36°C° 0 mm 3 mps 756 mmHg 54%
    11:00 +37°C° 0 mm 3 mps 756 mmHg 49%
    12:00 +38°C° 0 mm 3 mps 755 mmHg 45%
    13:00 +38°C° 0 mm 4 mps 754 mmHg 44%
    14:00 +40°C° 0 mm 4 mps 754 mmHg 43%
    15:00 +40°C° 0 mm 4 mps 753 mmHg 42%
    16:00 +38°C° 0 mm 4 mps 753 mmHg 44%
    17:00 +38°C° 0 mm 4 mps 753 mmHg 46%
    18:00 +37°C° 0 mm 4 mps 753 mmHg 47%
    19:00 +37°C° 0 mm 3 mps 754 mmHg 50%
    20:00 +36°C° 0 mm 2 mps 754 mmHg 52%
    21:00 +35°C° 0 mm 2 mps 754 mmHg 54%
    22:00 +35°C° 0 mm 2 mps 754 mmHg 54%
    23:00 +35°C° 0 mm 2 mps 754 mmHg 54%

    25 May, Saturday

    Time Temperature Precipitation Wind Pressure Humidity
    00:00 +35°C° 0 mm 2 mps 754 mmHg 53%
    01:00 +34°C° 0 mm 2 mps 754 mmHg 55%
    02:00 +33°C° 0 mm 1 mps 754 mmHg 57%
    03:00 +33°C° 0 mm 1 mps 754 mmHg 59%
    04:00 +33°C° 0 mm 1 mps 754 mmHg 62%
    05:00 +32°C° 0 mm 1 mps 755 mmHg 65%
    06:00 +32°C° 0 mm 1 mps 755 mmHg 68%
    07:00 +34°C° 0 mm 2 mps 755 mmHg 63%
    08:00 +35°C° 0 mm 2 mps 756 mmHg 58%
    09:00 +36°C° 0 mm 2 mps 756 mmHg 53%
    10:00 +37°C° 0 mm 3 mps 756 mmHg 49%
    11:00 +38°C° 0 mm 3 mps 755 mmHg 46%
    12:00 +39°C° 0 mm 3 mps 755 mmHg 42%
    13:00 +39°C° 0 mm 3 mps 754 mmHg 40%
    14:00 +40°C° 0 mm 3 mps 753 mmHg 39%
    15:00 +41°C° 0 mm 4 mps 752 mmHg 38%
    16:00 +40°C° 0 mm 3 mps 752 mmHg 39%
    17:00 +39°C° 0 mm 3 mps 752 mmHg 41%
    18:00 +38°C° 0 mm 3 mps 753 mmHg 42%
    19:00 +38°C° 0 mm 2 mps 753 mmHg 45%
    20:00 +37°C° 0 mm 2 mps 753 mmHg 47%
    21:00 +35°C° 0 mm 1 mps 753 mmHg 49%
    22:00 +35°C° 0 mm 1 mps 753 mmHg 49%
    23:00 +35°C° 0 mm 1 mps 753 mmHg 49%
    Show more